GW5963 Weather Reports


time (UTC)temp
C
wind
direction
speed
KPH
gust
KPH
rain 1hr
cm
rain 24hr
cm
rain mn
cm
humidity
%
barometer
mb
20260506115020 13 231 0.0 9.7 0.15 0.71 0.64 89 1013.5
20260506114518 14 115 3.2 11.3 0.33 0.71 0.64 90 1013.5
20260506114018 14 68 3.2 11.3 0.33 0.71 0.64 91 1013.3
20260506113518 14 256 3.2 6.4 0.33 0.71 0.64 93 1013.3
20260506113029 13 312 1.6 3.2 0.33 0.71 0.64 93 1013.4
20260506112518 12 247 0.0 4.8 0.33 0.71 0.64 92 1013.5
20260506112017 13 234 1.6 4.8 0.33 0.71 0.61 91 1013.4
20260506111517 13 297 1.6 3.2 0.33 0.71 0.61 91 1013.5
20260506111017 13 149 0.0 9.7 0.33 0.71 0.61 91 1013.5
20260506110517 13 252 1.6 9.7 0.28 0.66 0.58 91 1013.5
20260506110018 13 86 0.0 6.4 0.28 0.64 0.56 90 1013.6
20260506105517 13 113 0.0 9.7 0.25 1.17 0.53 89 1013.5
20260506105017 13 218 3.2 8.0 0.20 1.09 0.48 88 1013.5
20260506104517 14 160 1.6 12.9 0.03 0.91 0.30 89 1013.3
20260506104017 14 270 3.2 16.1 0.05 0.91 0.30 89 1013.2
20260506103517 14 354 3.2 11.3 0.05 0.91 0.30 92 1013.3
20260506103018 14 317 3.2 6.4 0.05 0.91 0.30 92 1013.2
20260506102517 13 245 1.6 8.0 0.08 0.91 0.30 92 1013.3
20260506102019 13 234 0.0 9.7 0.10 0.91 0.30 92 1013.3
20260506101518 13 248 1.6 8.0 0.10 0.91 0.30 92 1013.3
20260506101017 13 240 1.6 6.4 0.13 0.91 0.30 91 1013.3
20260506100518 13 96 1.6 4.8 0.13 0.91 0.30 91 1013.2
20260506100018 13 238 1.6 3.2 0.10 0.89 0.28 91 1013.3
20260506095517 13 252 0.0 3.2 0.10 1.17 0.28 91 1013.2
20260506095018 13 212 1.6 3.2 0.10 1.17 0.28 91 1013.2
20260506094517 13 119 0.0 1.6 0.10 1.17 0.28 90 1013.1
20260506094028 13 243 0.0 3.2 0.08 1.14 0.25 90 1013.1
20260506093529 13 146 0.0 3.2 0.05 1.12 0.23 90 1013.0
20260506093017 13 82 0.0 4.8 0.05 1.09 0.23 89 1013.1
20260506092517 13 243 1.6 9.7 0.05 1.09 0.23 89 1013.0
20260506092029 13 74 3.2 9.7 0.03 1.09 0.20 88 1012.9
20260506091519 13 79 3.2 11.3 0.03 1.07 0.18 87 1012.8
20260506091029 13 203 1.6 14.5 0.03 1.07 0.18 88 1012.7
20260506090518 13 288 6.4 14.5 0.03 1.07 0.18 88 1012.7
20260506090017 13 81 3.2 8.0 0.05 1.07 0.18 89 1012.7
20260506085517 13 94 1.6 12.9 0.05 1.12 0.18 90 1012.8
20260506085017 13 70 4.8 12.9 0.05 1.12 0.18 90 1012.6
20260506084529 13 144 3.2 8.0 0.05 1.12 0.18 90 1012.6
20260506084029 13 110 0.0 8.0 0.05 1.12 0.18 91 1012.6
20260506083529 13 179 3.2 8.0 0.05 1.12 0.18 91 1012.5
20260506083018 13 259 1.6 6.4 0.05 1.12 0.18 90 1012.5
20260506082529 13 284 0.0 8.0 0.05 1.12 0.18 89 1012.5
20260506082018 13 208 1.6 11.3 0.05 1.12 0.18 88 1012.5
20260506081518 13 160 4.8 11.3 0.03 1.09 0.15 88 1012.5
20260506081018 13 341 1.6 6.4 0.03 1.09 0.15 87 1012.3
20260506080518 13 7 1.6 11.3 0.03 1.09 0.15 87 1012.4
20260506073519 13 135 1.6 8.0 0.00 1.09 0.15 84 1012.2
20260506073029 14 357 3.2 12.9 0.00 1.09 0.15 83 1012.2
20260506072518 14 219 3.2 14.5 0.00 1.09 0.15 83 1012.2
20260506072018 14 297 3.2 14.5 0.00 1.09 0.15 81 1012.1
20260506071530 14 302 3.2 16.1 0.03 1.09 0.15 84 1012.1
20260506071019 13 140 1.6 16.1 0.03 1.09 0.15 85 1012.1
20260506070518 13 239 1.6 11.3 0.03 1.09 0.15 86 1012.1
20260506062018 12 256 4.8 12.9 0.03 1.09 0.15 90 1012.0
20260506061519 12 214 0.0 6.4 0.00 1.07 0.13 89 1011.9
20260506061018 12 236 0.0 6.4 0.00 1.07 0.13 89 1011.9
20260506060529 12 207 0.0 8.0 0.00 1.07 0.13 89 1011.9
20260506051018 11 230 1.6 8.0 0.00 1.09 0.13 94 1011.5
20260506050540 10 191 1.6 6.4 0.00 1.09 0.13 95 1011.5
20260506045018 10 129 0.0 3.2 0.00 1.78 0.13 95 1011.4
20260506044529 10 180 1.6 3.2 0.00 1.78 0.13 95 1011.5
20260506044030 10 151 1.6 4.8 0.00 1.78 0.13 95 1011.5
20260506043519 10 248 0.0 9.7 0.05 1.78 0.13 95 1011.6
20260506043029 10 248 0.0 9.7 0.05 1.78 0.13 95 1011.5
20260506042519 10 342 0.0 1.6 0.05 1.78 0.13 94 1011.5
20260506042019 10 278 0.0 1.6 0.05 1.78 0.13 94 1011.6
20260506041531 10 278 0.0 1.6 0.05 1.78 0.13 94 1011.6
20260506041019 10 278 0.0 1.6 0.05 1.78 0.13 94 1011.7
20260506040518 10 278 0.0 0.0 0.05 1.78 0.13 94 1011.7
20260506040018 10 278 0.0 1.6 0.05 1.78 0.13 94 1011.6
20260506035518 10 278 0.0 1.6 0.05 1.98 0.13 94 1011.7
20260506035019 10 140 0.0 1.6 0.05 1.98 0.13 94 1011.8
20260506034518 10 84 0.0 1.6 0.05 1.98 0.13 94 1012.0
20260506034020 10 84 0.0 1.6 0.05 1.98 0.13 94 1011.9
20260506033519 10 84 0.0 1.6 0.08 1.93 0.08 93 1011.9
20260506033019 10 84 0.0 1.6 0.08 1.93 0.08 93 1011.9
20260506032528 10 84 0.0 4.8 0.08 1.93 0.08 93 1011.9
20260506032030 10 79 1.6 6.4 0.08 1.93 0.08 93 1012.0
20260506031519 10 131 0.0 6.4 0.08 1.93 0.08 93 1012.0
20260506031019 10 326 0.0 3.2 0.08 1.93 0.08 93 1012.2
20260506030519 10 80 1.6 3.2 0.08 1.93 0.08 93 1012.1
20260506030019 10 80 0.0 3.2 0.05 1.93 0.05 93 1012.1
20260506025521 10 124 0.0 3.2 0.05 1.93 0.05 93 1012.0
20260506025018 11 116 1.6 3.2 0.05 1.93 0.05 92 1012.1
20260506024528 11 80 0.0 4.8 0.05 1.93 0.05 92 1012.2
20260506024018 11 80 1.6 4.8 0.05 1.93 0.05 92 1012.1
20260506023518 11 188 0.0 1.6 0.00 1.85 0.00 92 1012.1
20260506023018 11 188 0.0 3.2 0.00 1.85 0.00 92 1012.1
20260506022529 11 241 0.0 6.4 0.00 1.85 0.00 92 1012.1
20260506022018 11 137 1.6 6.4 0.00 1.85 0.00 92 1012.2
20260506021529 11 136 1.6 6.4 0.00 1.85 0.00 92 1012.3
20260506021018 11 311 1.6 6.4 0.00 1.85 0.00 92 1012.4
20260506020518 11 259 0.0 11.3 0.00 1.85 0.00 92 1012.3
20260506020029 11 272 1.6 11.3 0.00 1.85 0.00 92 1012.2
20260506015518 11 145 3.2 11.3 0.00 1.93 0.00 93 1012.1
20260506015018 10 235 0.0 1.6 0.00 1.93 0.00 92 1012.1
20260506014518 10 248 0.0 3.2 0.00 1.93 0.00 92 1012.0
20260506014018 10 116 0.0 3.2 0.00 1.93 0.00 92 1012.0
20260506013518 10 141 0.0 4.8 0.00 1.93 0.00 92 1012.2
20260506013019 10 254 1.6 4.8 0.00 1.93 0.00 91 1012.2
20260506012518 10 234 0.0 3.2 0.00 1.93 0.00 91 1012.1
20260506012018 10 221 1.6 3.2 0.00 1.93 0.00 91 1012.2
20260506011530 10 254 0.0 3.2 0.00 1.93 0.00 91 1012.4
20260506011017 10 223 0.0 3.2 0.00 1.93 0.00 91 1012.4
20260506010519 10 163 0.0 3.2 0.00 1.93 0.00 91 1012.5
20260506010018 10 238 0.0 1.6 0.00 1.93 0.00 91 1012.5
20260506005518 11 151 0.0 0.0 0.00 2.57 0.00 91 1012.6
20260506005018 11 151 0.0 0.0 0.00 2.57 0.00 91 1012.6
20260506004018 11 151 0.0 3.2 0.00 2.57 0.00 90 1012.8
20260506003518 11 192 0.0 1.6 0.00 2.57 0.00 90 1012.8
20260506003018 11 243 0.0 3.2 0.00 2.57 0.00 90 1012.8
20260506002518 11 169 0.0 6.4 0.00 2.57 0.00 91 1012.7
20260506002018 11 245 3.2 6.4 0.00 2.57 0.00 92 1012.8
20260506001519 11 191 1.6 3.2 0.00 2.57 0.00 93 1012.8
20260506001018 11 164 0.0 6.4 0.00 2.57 0.00 93 1012.8
20260506000518 11 241 1.6 6.4 0.00 2.57 0.00 94 1012.9
20260506000029 11 276 0.0 1.6 0.00 2.57 0.00 94 1012.8
20260505235519 10 283 0.0 1.6 0.00 2.69 0.00 94 1013.0
20260505235018 10 148 0.0 1.6 0.00 2.69 0.00 94 1013.0
20260505234518 10 148 0.0 3.2 0.00 2.69 0.00 94 1013.1
20260505234030 10 238 1.6 3.2 0.00 2.69 0.00 94 1013.2
20260505233518 10 220 0.0 1.6 0.00 2.69 0.00 94 1013.3
20260505233018 10 200 0.0 1.6 0.00 2.69 0.00 94 1013.2
20260505232518 10 252 0.0 3.2 0.00 2.69 0.00 94 1013.3
20260505232018 10 293 1.6 3.2 0.00 2.69 0.00 93 1013.3
20260505231531 10 231 0.0 6.4 0.00 2.69 0.00 93 1013.3
20260505231018 10 274 0.0 6.4 0.00 2.69 0.00 94 1013.3
20260505230519 10 152 0.0 1.6 0.00 2.69 0.00 93 1013.3
20260505230018 10 152 0.0 1.6 0.00 2.69 0.00 93 1013.3
20260505225518 10 82 0.0 1.6 0.00 2.69 0.00 93 1013.3
20260505225019 10 82 0.0 1.6 0.00 2.69 0.00 93 1013.2
20260505224530 10 82 0.0 1.6 0.03 2.69 0.00 93 1013.2
20260505224031 10 82 0.0 1.6 0.03 2.69 0.00 93 1013.3
20260505223530 10 82 0.0 0.0 0.03 2.69 0.00 93 1013.2
20260505223018 10 82 0.0 0.0 0.03 2.69 0.00 93 1013.2
20260505222519 10 82 0.0 0.0 0.03 2.69 0.00 92 1013.2
20260505222018 10 82 0.0 0.0 0.03 2.69 0.00 92 1013.2
20260505221530 10 82 0.0 1.6 0.03 2.69 0.00 92 1013.3
20260505221017 11 82 0.0 1.6 0.03 2.69 0.00 92 1013.4
20260505220518 11 82 0.0 0.0 0.03 2.69 0.00 92 1013.4
20260505220019 11 82 0.0 0.0 0.03 2.69 0.00 92 1013.4
20260505215519 11 82 0.0 0.0 0.03 2.69 2.69 92 1013.5
20260505215019 11 82 0.0 1.6 0.05 2.69 2.69 92 1013.5
20260505214519 11 82 0.0 1.6 0.03 2.69 2.69 92 1013.6
20260505214019 11 82 0.0 0.0 0.03 2.69 2.69 92 1013.6
20260505213518 11 82 0.0 0.0 0.03 2.69 2.69 92 1013.6
20260505213019 11 82 0.0 1.6 0.03 2.69 2.69 92 1013.5
20260505212518 11 82 0.0 3.2 0.03 2.69 2.69 92 1013.6
20260505212019 11 82 0.0 3.2 0.03 2.69 2.69 92 1013.7
20260505211530 11 110 0.0 0.0 0.03 2.69 2.69 92 1013.7
20260505211019 11 110 0.0 0.0 0.03 2.69 2.69 92 1013.7
20260505210519 11 111 0.0 0.0 0.03 2.69 2.69 92 1013.7
20260505210030 11 191 0.0 1.6 0.03 2.69 2.69 92 1013.7
20260505205519 11 191 0.0 1.6 0.03 2.69 2.69 92 1013.7
20260505205019 11 109 0.0 0.0 0.00 2.67 2.67 92 1013.7
20260505204530 11 108 0.0 0.0 0.00 2.67 2.67 92 1013.7
20260505204030 11 109 0.0 0.0 0.00 2.67 2.67 91 1013.7
20260505203519 11 108 0.0 0.0 0.00 2.67 2.67 91 1013.6
20260505203030 11 106 0.0 0.0 0.00 2.67 2.67 91 1013.6
20260505202519 11 106 0.0 0.0 0.00 2.67 2.67 91 1013.6
20260505202018 11 106 0.0 0.0 0.00 2.67 2.67 90 1013.6
20260505201520 11 106 0.0 0.0 0.00 2.67 2.67 90 1013.5
20260505201030 11 106 0.0 0.0 0.00 2.67 2.67 90 1013.5
20260505200519 11 106 0.0 0.0 0.00 2.67 2.67 89 1013.5
20260505200019 11 104 0.0 0.0 0.00 2.67 2.67 89 1013.5
20260505195519 11 104 0.0 0.0 0.00 2.67 2.67 88 1013.4
20260505195019 11 105 0.0 0.0 0.00 2.67 2.67 88 1013.4
20260505194530 12 103 0.0 0.0 0.00 2.67 2.67 87 1013.3
20260505194019 12 103 0.0 0.0 0.00 2.67 2.67 87 1013.2
20260505193519 12 103 0.0 0.0 0.00 2.67 2.67 86 1013.2
20260505193019 12 102 0.0 3.2 0.00 2.67 2.67 85 1013.1
20260505192519 12 145 0.0 8.0 0.00 2.67 2.67 85 1013.1
20260505192019 12 130 0.0 8.0 0.00 2.67 2.67 84 1013.0
20260505191520 12 162 1.6 4.8 0.00 2.67 2.67 85 1013.1
20260505191019 12 302 1.6 4.8 0.00 2.67 2.67 85 1013.0
20260505190519 13 211 0.0 8.0 0.00 2.67 2.67 85 1013.0
20260505190023 13 162 1.6 8.0 0.00 2.67 2.67 85 1013.0
20260505185519 13 276 1.6 4.8 0.00 2.67 2.67 84 1013.0
20260505185019 13 218 1.6 8.0 0.00 2.67 2.67 84 1013.0
20260505184519 13 271 1.6 8.0 0.00 2.67 2.67 83 1013.0
20260505184019 13 282 1.6 8.0 0.00 2.67 2.67 82 1013.0
20260505183518 13 155 1.6 8.0 0.00 2.67 2.67 81 1012.9
20260505183019 13 115 0.0 9.7 0.00 2.67 2.67 80 1012.8
20260505182519 13 199 1.6 9.7 0.00 2.67 2.67 79 1012.9
20260505182018 13 240 3.2 8.0 0.00 2.67 2.67 79 1012.8
20260505181519 13 256 1.6 6.4 0.00 2.67 2.67 80 1012.8
20260505181018 13 290 3.2 6.4 0.00 2.67 2.67 80 1012.9
20260505180518 13 149 1.6 9.7 0.00 2.67 2.67 80 1012.8
20260505180018 13 217 3.2 9.7 0.00 2.67 2.67 80 1012.8
20260505175530 13 289 1.6 9.7 0.00 2.67 2.67 80 1012.8
20260505175019 14 309 3.2 11.3 0.00 2.67 2.67 79 1012.9
20260505174530 14 247 3.2 11.3 0.00 2.67 2.67 79 1012.8
20260505174019 14 159 1.6 9.7 0.00 2.67 2.67 81 1012.9
20260505173519 14 218 0.0 9.7 0.00 2.67 2.67 80 1012.8
20260505173029 14 287 3.2 9.7 0.00 2.67 2.67 80 1012.8
20260505172518 14 148 0.0 8.0 0.00 2.67 2.67 79 1012.8
20260505172018 14 269 1.6 9.7 0.00 2.67 2.67 80 1012.9
20260505171518 14 271 3.2 9.7 0.00 2.67 2.67 80 1013.0
20260505171018 14 279 3.2 8.0 0.00 2.67 2.67 79 1012.9
20260505170518 14 245 1.6 8.0 0.00 2.67 2.67 78 1012.9
20260505170018 15 169 0.0 11.3 0.00 2.67 2.67 79 1012.9
20260505165518 15 257 4.8 12.9 0.00 2.67 2.67 78 1013.0
20260505165018 15 254 3.2 14.5 0.00 2.67 2.67 78 1013.1
20260505164518 15 259 3.2 14.5 0.00 2.67 2.67 78 1013.1
20260505164018 15 145 3.2 12.9 0.00 2.67 2.67 78 1013.1
20260505163519 15 274 1.6 11.3 0.00 2.67 2.67 78 1013.2
20260505163020 15 129 3.2 12.9 0.00 2.67 2.67 77 1013.2
20260505162519 15 251 4.8 16.1 0.00 2.67 2.67 76 1013.3
20260505162018 15 294 6.4 16.1 0.00 2.67 2.67 75 1013.3
20260505161521 16 290 4.8 14.5 0.00 2.67 2.67 75 1013.3
20260505161018 16 273 4.8 12.9 0.00 2.67 2.67 77 1013.3
20260505160519 15 216 3.2 17.7 0.00 2.67 2.67 77 1013.3
20260505153019 16 298 8.0 17.7 0.00 2.67 2.67 69 1013.3
20260505152519 17 266 3.2 14.5 0.00 2.67 2.67 73 1013.2
20260505152030 16 282 6.4 14.5 0.00 2.67 2.67 70 1013.2
20260505151520 16 219 6.4 16.1 0.00 2.67 2.67 72 1013.2
20260505151019 16 115 3.2 20.9 0.00 2.67 2.67 74 1013.2
20260505150530 16 306 8.0 24.1 0.00 2.67 2.67 73 1013.4
20260505140519 16 128 3.2 9.7 0.00 2.74 2.67 78 1013.2
20260505125019 13 236 8.0 14.5 0.00 2.74 2.67 90 1013.7
20260505124519 13 264 8.0 17.7 0.00 2.74 2.67 91 1013.7
20260505124019 13 264 3.2 17.7 0.00 2.74 2.67 92 1013.7
20260505123520 13 271 4.8 11.3 0.00 2.74 2.67 93 1013.8
20260505123020 12 250 4.8 8.0 0.00 2.74 2.67 94 1013.7
20260505122519 13 149 1.6 4.8 0.00 2.74 2.67 95 1013.8
20260505122031 12 142 1.6 4.8 0.00 2.74 2.67 95 1013.7
20260505121520 12 252 0.0 3.2 0.00 2.74 2.67 94 1013.9
20260505121020 12 208 0.0 3.2 0.00 2.74 2.67 94 1013.8
20260505120530 12 248 0.0 0.0 0.03 2.74 2.67 94 1013.8
20260505120019 12 154 0.0 3.2 0.05 2.74 2.67 94 1013.8
20260505115531 12 219 0.0 3.2 0.05 2.74 2.67 94 1013.9